Regional Weather Roundup
Issued by NWS

Home | Current Version | Previous Version | Text Only | Print | Product List | Glossary Off
Versions: 1 2 3 4 5 6 7 8 9 10 11 12 13 14 15 16 17 18 19 20 21 22 23 24 25 26 27 28 29 30 31 32 33 34 35 36 37 38 39 40 41 42 43 44 45 46 47 48 49 50

000
ASUS43 KFSD 022002
RWRSD

WEATHER ROUNDUP FOR SOUTH DAKOTA
NATIONAL WEATHER SERVICE SIOUX FALLS SD
200 PM CST MON MAR 02 2015

NOTE: "FAIR" INDICATES FEW OR NO CLOUDS BELOW 12,000 FEET WITH NO
SIGNIFICANT WEATHER AND/OR OBSTRUCTIONS TO VISIBILITY.


SDZ001>005-009-010-012>017-022100-
NORTHWEST AND NORTH CENTRAL SOUTH DAKOTA

CITY           SKY/WX    TMP DP  RH WIND       PRES   REMARKS
BUFFALO          N/A     42  17  36 SW12      29.71
FAITH            N/A     46  16  30 SW17      29.79
MOBRIDGE       MOSUNNY   42  19  39 S24G37    29.85
$$

SDZ012>016-024>037-041>051-057-063-072>074-022100-
SOUTHWEST AND SOUTH CENTRAL SOUTH DAKOTA

CITY           SKY/WX    TMP DP  RH WIND       PRES   REMARKS
RAPID CTY ARPT PTSUNNY   47  23  38 S20       29.75
PIERRE         SUNNY     45  17  32 S30G41    29.91
CUSTER         MOSUNNY   37  20  50 SW8       29.74
ELLSWORTH AFB  PTSUNNY   46  24  41 SW9       29.75F
PHILIP         MOSUNNY   48  16  27 S25G35    29.83
PINE RIDGE     PTSUNNY   42  20  41 S22G30    29.82
SPEARFISH      FAIR      37  19  48 CALM      29.78F
WINNER         FAIR      44  14  29 S26G36    29.96
$$

SDZ004>011-016>023-039-040-022100-
NORTHEAST SOUTH DAKOTA

CITY           SKY/WX    TMP DP  RH WIND       PRES   REMARKS
ABERDEEN       MOSUNNY   32  19  58 S31G38    30.05  WCI  17
WATERTOWN      CLOUDY    26  17  68 S18G28    30.11  WCI  13
SISSETON         N/A     29  16  58 S23G29    30.12F WCI  15
$$

SDZ017-020-022-023-036>040-048>070-022100-
SOUTHEAST SOUTH DAKOTA

CITY           SKY/WX    TMP DP  RH WIND       PRES   REMARKS
SIOUX FALLS    CLOUDY    27  16  63 S15       30.20  WCI  15
HURON          CLOUDY    34  17  50 S22G30    30.08  WCI  22
MITCHELL       CLOUDY    33  14  45 S26G36    30.13  WCI  20
YANKTON        CLOUDY    36  16  44 SE20      30.19F
$$

ABBREVIATIONS USED IN REMARKS
   TC - TEMPERATURE IN CELSIUS
  WCI - WIND CHILL INDEX
   HX - HEAT INDEX
  VSB - VISIBILITY



USA.gov is the U.S. government's official web portal to all federal, state and local government web resources and services.